Location: Killam
(52.7910°N, 111.8608°W)
Time: 13:40:17
(UTC+00:00)

Oscar 11 - Pass Details

Date: 19 March 2026
Orbit: 590 x 602 km, 97.8° (Epoch: 18 April)

Event Time Altitude Azimuth Distance (km) Brightness Sun altitude
Rises 11:51:37 0° 9° (N) 2,841 10.9 -15.7°
Reaches altitude 10° 11:53:52 10° 2° (N) 1,934 9.9 -15.4°
Maximum altitude 11:57:49 41° 293° (WNW) 862 7.4 -14.8°
Enters shadow 11:59:52 24° 237° (WSW) 1,243 8.0 -14.5°
